Fort Meade, MD

12:56 PM EDT on June 23, 2017 (GMT -0400)
Tipton

Weather History for KFME - November, 2013

Change the Weather History Date:

Sunday, November 17, 2013

  Actual Average (KBWI) Record (KBWI)
Temperature  
Mean Temperature 56 °F -  
Max Temperature 64 °F 55 °F 75 °F (1928)
Min Temperature 48 °F 34 °F 20 °F (1996)
Degree Days  
Heating Degree Days 9    
Growing Degree Days 6 (Base 50)    
Moisture  
Dew Point 52 °F    
Average Humidity 87    
Maximum Humidity 100    
Minimum Humidity 68    
Precipitation  
Precipitation 0.00 in - - ()
Sea Level Pressure  
Sea Level Pressure 30.09 in    
Wind  
Wind Speed 3 mph (SSE)    
Max Wind Speed 9 mph    
Max Gust Speed -    
Visibility 6 miles    
Events      
Averages and records for this station are not official NWS values.
T = Trace of Precipitation, MM = Missing Value Source: NWS Daily Summary

Daily Weather History Graph

Daily Weather History Graph

Search for Another Location

Airport or City:

Trip Planner

Search our weather history database for the weather conditions in past years. The results will help you decide how hot, cold, wet, or windy it might be!

Date:

Astronomy

Nov. 17, 2013 Rise Set
Actual Time 6:52 AM EST 4:51 PM EST
Civil Twilight 6:23 AM EST 5:19 PM EST
Nautical Twilight 5:51 AM EST 5:52 PM EST
Astronomical Twilight 5:19 AM EST 6:24 PM EST
Moon 5:06 PM EST (11/17) 6:44 AM EST (11/17)
Length of Visible Light 10h 56m
Length of Day
9h 58m
Full, 100% of the Moon is Illuminated
Nov 17
Full
Nov 25
Last Quarter
Dec 2
New
Dec 9
First Quarter
Dec 17
Full

Hourly Weather History & Observations

Time (EST) Temp. Dew Point Humidity Pressure Visibility Wind Dir Wind Speed Gust Speed Precip Events Conditions
12:15 AM 50.0 °F 48.2 °F 94% 30.26 in 1.5 mi ESE 4.6 mph - N/A   Overcast
12:36 AM 50.0 °F 48.2 °F 94% 30.26 in 1.5 mi SE 4.6 mph - N/A   Overcast
12:57 AM 50.0 °F 48.2 °F 94% 30.25 in 1.5 mi SE 3.5 mph - N/A   Overcast
1:15 AM 50.0 °F 48.2 °F 94% 30.25 in 1.5 mi Calm Calm - N/A   Overcast
1:36 AM 50.0 °F 48.2 °F 94% 30.26 in 1.2 mi Calm Calm - N/A   Overcast
1:57 AM 50.0 °F 48.2 °F 94% 30.25 in 1.2 mi Calm Calm - N/A   Overcast
2:15 AM 50.0 °F 50.0 °F 100% 30.24 in 1.2 mi ESE 3.5 mph - N/A   Overcast
2:36 AM 50.0 °F 50.0 °F 100% 30.24 in 1.2 mi Calm Calm - N/A   Overcast
2:57 AM 50.0 °F 50.0 °F 100% 30.22 in 1.2 mi ESE 4.6 mph - N/A   Overcast
3:15 AM 51.8 °F 50.0 °F 94% 30.22 in 1.8 mi Calm Calm - N/A   Overcast
3:36 AM 51.8 °F 50.0 °F 94% 30.21 in 1.5 mi SE 3.5 mph - N/A   Overcast
3:57 AM 50.0 °F 50.0 °F 100% 30.21 in 1.2 mi Calm Calm - N/A   Overcast
4:15 AM 51.8 °F 50.0 °F 94% 30.21 in 1.2 mi Calm Calm - N/A   Overcast
4:36 AM 50.0 °F 50.0 °F 100% 30.22 in 1.0 mi Calm Calm - N/A   Overcast
4:57 AM 50.0 °F 50.0 °F 100% 30.21 in 1.0 mi Calm Calm - N/A   Overcast
5:15 AM 51.8 °F 50.0 °F 94% 30.19 in 1.2 mi SE 4.6 mph - N/A   Overcast
5:36 AM 51.8 °F 50.0 °F 94% 30.20 in 1.0 mi Calm Calm - N/A   Overcast
5:57 AM 51.8 °F 50.0 °F 94% 30.19 in 1.0 mi Calm Calm - N/A   Overcast
6:15 AM 51.8 °F 50.0 °F 94% 30.19 in 1.0 mi Calm Calm - N/A   Overcast
6:36 AM 51.8 °F 50.0 °F 94% 30.17 in 1.2 mi ESE 4.6 mph - N/A   Overcast
6:57 AM 50.0 °F 50.0 °F 100% 30.16 in 1.2 mi Calm Calm - N/A   Overcast
7:15 AM 50.0 °F 46.4 °F 87% 30.18 in 0.5 mi Calm Calm - N/A   Mostly Cloudy
7:36 AM 48.2 °F 46.4 °F 93% 30.19 in 0.5 mi Calm Calm - N/A   Unknown
7:57 AM 48.2 °F 46.4 °F 93% 30.19 in 0.5 mi Calm Calm - N/A   Unknown
8:18 AM 50.0 °F 48.2 °F 94% 30.19 in 0.5 mi Calm Calm - N/A   Overcast
8:36 AM 51.8 °F 50.0 °F 94% 30.20 in 1.0 mi Calm Calm - N/A   Overcast
8:57 AM 51.8 °F 50.0 °F 94% 30.19 in 1.0 mi ESE 3.5 mph - N/A   Overcast
9:18 AM 51.8 °F 50.0 °F 94% 30.19 in 1.2 mi SE 4.6 mph - N/A   Overcast
9:36 AM 51.8 °F 51.8 °F 100% 30.19 in 3.0 mi Calm Calm - N/A   Overcast
9:57 AM 53.6 °F 51.8 °F 94% 30.20 in 4.0 mi SSE 3.5 mph - N/A   Overcast
10:18 AM 53.6 °F 51.8 °F 94% 30.18 in 7.0 mi SE 5.8 mph - N/A   Overcast
10:36 AM 55.4 °F 51.8 °F 88% 30.18 in 10.0 mi SSE 6.9 mph - N/A   Mostly Cloudy
10:57 AM 59.0 °F 51.8 °F 77% 30.16 in 10.0 mi SE 8.1 mph - N/A   Scattered Clouds
11:18 AM 60.8 °F 53.6 °F 77% 30.14 in 10.0 mi SSE 4.6 mph - N/A   Scattered Clouds
11:36 AM 59.0 °F 53.6 °F 82% 30.13 in 10.0 mi South 4.6 mph - N/A   Overcast
11:57 AM 60.8 °F 53.6 °F 77% 30.13 in 10.0 mi SSW 5.8 mph - N/A   Overcast
12:18 PM 60.8 °F 53.6 °F 77% 30.12 in 10.0 mi South 4.6 mph - N/A   Overcast
12:36 PM 62.6 °F 53.6 °F 72% 30.11 in 10.0 mi South 5.8 mph - N/A   Overcast
12:57 PM 62.6 °F 53.6 °F 72% 30.09 in 10.0 mi South 6.9 mph - N/A   Overcast
1:18 PM 62.6 °F 53.6 °F 72% 30.08 in 10.0 mi South 9.2 mph - N/A   Overcast
1:36 PM 62.6 °F 53.6 °F 72% 30.07 in 10.0 mi SSE 8.1 mph - N/A   Overcast
1:57 PM 62.6 °F 53.6 °F 72% 30.06 in 10.0 mi South 5.8 mph - N/A   Unknown
2:18 PM 62.6 °F 53.6 °F 72% 30.05 in 10.0 mi SSE 6.9 mph - N/A   Overcast
2:36 PM 62.6 °F 53.6 °F 72% 30.05 in 10.0 mi South 4.6 mph - N/A   Overcast
2:57 PM 64.4 °F 53.6 °F 68% 30.03 in 10.0 mi South 3.5 mph - N/A   Overcast
3:18 PM 64.4 °F 55.4 °F 73% 30.01 in 10.0 mi SSE 3.5 mph - N/A   Overcast
3:36 PM 62.6 °F 53.6 °F 72% 30.01 in 10.0 mi Calm Calm - N/A   Mostly Cloudy
3:57 PM 62.6 °F 53.6 °F 72% 30.01 in 10.0 mi Calm Calm - N/A   Mostly Cloudy
4:18 PM 60.8 °F 55.4 °F 82% 30.01 in 10.0 mi Calm Calm - N/A   Scattered Clouds
4:36 PM 60.8 °F 53.6 °F 77% 30.00 in 10.0 mi ESE 5.8 mph - N/A   Scattered Clouds
4:57 PM 60.8 °F 53.6 °F 77% 30.00 in 10.0 mi SE 4.6 mph - N/A   Scattered Clouds
5:18 PM 60.8 °F 53.6 °F 77% 30.00 in 10.0 mi SE 4.6 mph - N/A   Mostly Cloudy
5:39 PM 59.0 °F 53.6 °F 82% 29.98 in 10.0 mi SE 5.8 mph - N/A   Scattered Clouds
5:57 PM 59.0 °F 53.6 °F 82% 29.99 in 10.0 mi SE 3.5 mph - N/A   Clear
6:18 PM 57.2 °F 53.6 °F 88% 29.98 in 10.0 mi SE 4.6 mph - N/A   Scattered Clouds
6:39 PM 57.2 °F 53.6 °F 88% 29.96 in 10.0 mi SE 4.6 mph - N/A   Clear
6:57 PM 59.0 °F 53.6 °F 82% 29.95 in 10.0 mi SE 5.8 mph - N/A   Clear
7:18 PM 59.0 °F 53.6 °F 82% 29.94 in 10.0 mi SSE 5.8 mph - N/A   Clear
7:39 PM 59.0 °F 53.6 °F 82% 29.94 in 10.0 mi SSE 5.8 mph - N/A   Clear
7:57 PM 59.0 °F 53.6 °F 82% 29.93 in 10.0 mi South 3.5 mph - N/A   Clear
8:18 PM 57.2 °F 53.6 °F 88% 29.93 in 10.0 mi Calm Calm - N/A   Clear
8:39 PM 57.2 °F 53.6 °F 88% 29.91 in 10.0 mi SSE 4.6 mph - N/A   Scattered Clouds
8:57 PM 57.2 °F 53.6 °F 88% 29.89 in 10.0 mi SSE 5.8 mph - N/A   Mostly Cloudy
9:18 PM 57.2 °F 53.6 °F 88% 29.88 in 10.0 mi South 6.9 mph - N/A   Scattered Clouds
9:39 PM 57.2 °F 53.6 °F 88% 29.87 in 10.0 mi South 5.8 mph - N/A   Scattered Clouds
9:57 PM 59.0 °F 55.4 °F 88% 29.86 in 10.0 mi SSE 5.8 mph - N/A   Overcast
10:57 PM 59.0 °F 55.4 °F 88% 29.83 in 10.0 mi South 4.6 mph - N/A   Overcast
11:18 PM 59.0 °F 55.4 °F 88% 29.80 in 7.0 mi SE 6.9 mph - N/A   Overcast
11:39 PM 59.0 °F 55.4 °F 88% 29.79 in 7.0 mi SSW 5.8 mph - N/A   Mostly Cloudy
11:57 PM 59.0 °F 57.2 °F 94% 29.78 in 10.0 mi SSW 8.1 mph - N/A   Overcast